NKS3008 KMIA-KATL

Flight info

Callsign NKS3008
Flight time 1h 22m
Altitude 38000
Route FLMGO2 STYMY Q77 MJAMS/N0448F370 Q77 SHRKS/N0453F380 LAIRI LARZZ JJEDI4
Aircraft A321/M-SDE3FGHIRWY/LB1

Departure

Time 2026-05-03 22:04
Airport Miami International Airport (KMIA)

Arrival

Time 2026-05-03 23:26
Airport Hartsfield Jackson Atlanta International Airport (KATL)
Time Latitude Longitude Altitude Speed Heading
2026-05-03 21:18 25.79364 -80.28029 12 ft 0 kts 163°
2026-05-03 21:39 25.79380 -80.28034 12 ft 2 kts 163°
2026-05-03 21:40 25.79394 -80.28039 12 ft 2 kts 163°
2026-05-03 21:40 25.79409 -80.28039 12 ft 2 kts 202°
2026-05-03 21:40 25.79422 -80.28030 12 ft 2 kts 233°
2026-05-03 21:40 25.79426 -80.28023 12 ft 1 kts 250°
2026-05-03 21:41 25.79428 -80.28017 12 ft 0 kts 246°
2026-05-03 21:44 25.79427 -80.28017 12 ft 0 kts 246°
2026-05-03 21:44 25.79425 -80.28024 12 ft 1 kts 246°
2026-05-03 21:44 25.79419 -80.28038 12 ft 2 kts 245°
2026-05-03 21:44 25.79409 -80.28062 12 ft 3 kts 244°
2026-05-03 21:45 25.79398 -80.28086 12 ft 4 kts 244°
2026-05-03 21:45 25.79384 -80.28120 12 ft 5 kts 246°
2026-05-03 21:45 25.79369 -80.28162 12 ft 6 kts 255°
2026-05-03 21:45 25.79362 -80.28216 12 ft 7 kts 258°
2026-05-03 21:46 25.79343 -80.28274 12 ft 8 kts 251°
2026-05-03 21:46 25.79334 -80.28318 12 ft 9 kts 264°
2026-05-03 21:46 25.79333 -80.28327 12 ft 0 kts 266°
2026-05-03 21:47 25.79333 -80.28333 12 ft 2 kts 266°
2026-05-03 21:47 25.79330 -80.28375 12 ft 8 kts 266°
2026-05-03 21:48 25.79325 -80.28458 12 ft 11 kts 266°
2026-05-03 21:48 25.79320 -80.28549 12 ft 11 kts 266°
2026-05-03 21:48 25.79319 -80.28603 12 ft 10 kts 275°
2026-05-03 21:48 25.79313 -80.28683 12 ft 10 kts 255°
2026-05-03 21:49 25.79314 -80.28777 14 ft 9 kts 297°
2026-05-03 21:49 25.79345 -80.28842 15 ft 9 kts 300°
2026-05-03 21:49 25.79383 -80.28915 13 ft 12 kts 300°
2026-05-03 21:49 25.79429 -80.29002 12 ft 14 kts 300°
2026-05-03 21:50 25.79474 -80.29093 12 ft 12 kts 299°
2026-05-03 21:50 25.79518 -80.29179 12 ft 13 kts 300°
2026-05-03 21:50 25.79564 -80.29268 12 ft 13 kts 300°
2026-05-03 21:50 25.79610 -80.29356 12 ft 13 kts 300°
2026-05-03 21:51 25.79639 -80.29415 12 ft 13 kts 298°
2026-05-03 21:51 25.79701 -80.29538 12 ft 13 kts 300°
2026-05-03 21:51 25.79750 -80.29632 12 ft 13 kts 300°
2026-05-03 21:51 25.79795 -80.29719 12 ft 12 kts 299°
2026-05-03 21:52 25.79839 -80.29805 12 ft 12 kts 299°
2026-05-03 21:52 25.79882 -80.29889 12 ft 12 kts 300°
2026-05-03 21:52 25.79916 -80.29957 12 ft 6 kts 299°
2026-05-03 21:52 25.79919 -80.29961 12 ft 0 kts 299°
2026-05-03 21:54 25.79919 -80.29963 12 ft 0 kts 299°
2026-05-03 21:54 25.79922 -80.29967 12 ft 0 kts 299°
2026-05-03 22:01 25.79922 -80.29968 12 ft 0 kts 299°
2026-05-03 22:02 25.79934 -80.29992 12 ft 6 kts 300°
2026-05-03 22:02 25.79965 -80.30051 12 ft 9 kts 300°
2026-05-03 22:02 25.80004 -80.30115 12 ft 10 kts 326°
2026-05-03 22:02 25.80051 -80.30127 12 ft 10 kts 12°
2026-05-03 22:03 25.80072 -80.30089 12 ft 0 kts 84°
2026-05-03 22:03 25.80072 -80.30088 12 ft 0 kts 84°
2026-05-03 22:03 25.80077 -80.29979 12 ft 42 kts 88°
2026-05-03 22:04 25.80101 -80.29398 12 ft 108 kts 88°
2026-05-03 22:04 25.80145 -80.28335 13 ft 163 kts 87°
2026-05-03 22:04 25.80224 -80.27034 488 ft 169 kts 83°
2026-05-03 22:04 25.80304 -80.26183 873 ft 170 kts 83°
2026-05-03 22:05 25.80408 -80.24439 1653 ft 173 kts 86°
2026-05-03 22:05 25.80437 -80.23102 2041 ft 175 kts 87°
2026-05-03 22:05 25.80449 -80.22190 2159 ft 183 kts 87°
2026-05-03 22:05 25.80496 -80.20229 2477 ft 198 kts 87°
2026-05-03 22:06 25.80558 -80.18670 2687 ft 211 kts 85°
2026-05-03 22:06 25.81003 -80.17098 2897 ft 222 kts 54°
2026-05-03 22:06 25.81771 -80.16294 3029 ft 231 kts 29°
2026-05-03 22:06 25.83912 -80.15781 3430 ft 248 kts 359°
2026-05-03 22:07 25.85685 -80.15788 3711 ft 265 kts 359°
2026-05-03 22:07 25.87568 -80.15781 4230 ft 272 kts 359°
2026-05-03 22:07 25.89437 -80.15884 4881 ft 273 kts 350°
2026-05-03 22:07 25.91322 -80.16348 5486 ft 276 kts 341°
2026-05-03 22:08 25.93155 -80.16991 6163 ft 278 kts 339°
2026-05-03 22:08 25.94984 -80.17683 6843 ft 280 kts 339°
2026-05-03 22:08 25.96845 -80.18326 7462 ft 284 kts 340°
2026-05-03 22:08 25.98683 -80.19159 8047 ft 285 kts 327°
2026-05-03 22:09 26.00283 -80.20399 8731 ft 282 kts 316°
2026-05-03 22:09 26.01769 -80.21864 9382 ft 283 kts 314°
2026-05-03 22:09 26.03237 -80.23323 10004 ft 285 kts 314°
2026-05-03 22:10 26.06262 -80.26335 10711 ft 307 kts 314°
2026-05-03 22:10 26.07910 -80.27976 10968 ft 322 kts 314°
2026-05-03 22:10 26.09620 -80.29676 11216 ft 336 kts 315°
2026-05-03 22:10 26.11406 -80.31445 11453 ft 350 kts 315°
2026-05-03 22:11 26.13255 -80.33267 11682 ft 362 kts 315°
2026-05-03 22:11 26.15169 -80.35162 11902 ft 375 kts 315°
2026-05-03 22:11 26.17149 -80.37126 12112 ft 386 kts 315°
2026-05-03 22:11 26.19174 -80.39141 12312 ft 397 kts 315°
2026-05-03 22:12 26.21320 -80.41165 12660 ft 405 kts 319°
2026-05-03 22:12 26.23642 -80.42966 13120 ft 410 kts 324°
2026-05-03 22:12 26.26142 -80.44521 13594 ft 414 kts 329°
2026-05-03 22:12 26.28739 -80.45933 14041 ft 417 kts 331°
2026-05-03 22:13 26.31387 -80.47330 14499 ft 419 kts 330°
2026-05-03 22:13 26.33999 -80.48706 14985 ft 421 kts 330°
2026-05-03 22:13 26.36676 -80.50124 15397 ft 424 kts 330°
2026-05-03 22:13 26.39356 -80.51549 15790 ft 427 kts 330°
2026-05-03 22:14 26.42055 -80.52985 16194 ft 429 kts 330°
2026-05-03 22:14 26.44744 -80.54413 16560 ft 433 kts 330°
2026-05-03 22:14 26.47513 -80.55750 16931 ft 437 kts 333°
2026-05-03 22:14 26.49433 -80.56560 17209 ft 440 kts 336°
2026-05-03 22:15 26.53354 -80.57952 17679 ft 445 kts 339°
2026-05-03 22:15 26.56355 -80.58910 18030 ft 448 kts 339°
2026-05-03 22:15 26.59344 -80.59853 18391 ft 450 kts 339°
2026-05-03 22:15 26.61339 -80.60481 18611 ft 452 kts 339°
2026-05-03 22:16 26.65432 -80.61777 19041 ft 456 kts 339°
2026-05-03 22:16 26.67452 -80.62418 19252 ft 457 kts 339°
2026-05-03 22:16 26.71552 -80.63721 19696 ft 459 kts 339°
2026-05-03 22:16 26.74643 -80.64706 20012 ft 461 kts 339°
2026-05-03 22:17 26.77722 -80.65693 20316 ft 463 kts 338°
2026-05-03 22:17 26.80857 -80.66712 20610 ft 466 kts 338°
2026-05-03 22:17 26.83981 -80.67722 20886 ft 469 kts 338°
2026-05-03 22:17 26.87094 -80.68722 21165 ft 470 kts 338°
2026-05-03 22:18 26.90276 -80.69742 21471 ft 472 kts 338°
2026-05-03 22:18 26.93369 -80.70843 21732 ft 473 kts 336°
2026-05-03 22:18 26.96506 -80.72019 22006 ft 474 kts 335°
2026-05-03 22:18 26.99666 -80.73218 22286 ft 475 kts 335°
2026-05-03 22:19 27.02796 -80.74409 22532 ft 477 kts 335°
2026-05-03 22:19 27.05942 -80.75603 22789 ft 479 kts 335°
2026-05-03 22:19 27.08052 -80.76406 22966 ft 480 kts 335°
2026-05-03 22:19 27.12325 -80.78025 23282 ft 483 kts 335°
2026-05-03 22:20 27.15552 -80.79242 23541 ft 485 kts 335°
2026-05-03 22:20 27.18751 -80.80450 23774 ft 487 kts 335°
2026-05-03 22:20 27.20901 -80.81263 23928 ft 488 kts 335°
2026-05-03 22:20 27.24127 -80.82487 24235 ft 488 kts 335°
2026-05-03 22:21 27.28390 -80.84108 24771 ft 485 kts 334°
2026-05-03 22:21 27.31577 -80.85319 25123 ft 484 kts 334°
2026-05-03 22:21 27.34765 -80.86569 25496 ft 481 kts 333°
2026-05-03 22:21 27.36838 -80.87414 25732 ft 480 kts 333°
2026-05-03 22:22 27.40996 -80.89129 26215 ft 478 kts 332°
2026-05-03 22:22 27.44126 -80.90425 26603 ft 476 kts 332°
2026-05-03 22:22 27.47222 -80.91705 26976 ft 474 kts 332°
2026-05-03 22:22 27.50302 -80.92978 27348 ft 472 kts 332°
2026-05-03 22:23 27.53394 -80.94255 27709 ft 470 kts 332°
2026-05-03 22:23 27.56458 -80.95522 28004 ft 470 kts 331°
2026-05-03 22:23 27.59525 -80.96791 28286 ft 470 kts 331°
2026-05-03 22:23 27.62597 -80.98061 28607 ft 469 kts 331°
2026-05-03 22:24 27.65662 -80.99329 28927 ft 468 kts 331°
2026-05-03 22:24 27.67690 -81.00167 29132 ft 467 kts 331°
2026-05-03 22:24 27.70724 -81.01421 29486 ft 465 kts 331°
2026-05-03 22:24 27.74778 -81.03095 29896 ft 462 kts 330°
2026-05-03 22:25 27.77792 -81.04343 30053 ft 464 kts 330°
2026-05-03 22:25 27.80815 -81.05600 30244 ft 465 kts 330°
2026-05-03 22:25 27.82863 -81.06451 30440 ft 464 kts 330°
2026-05-03 22:25 27.86885 -81.08118 30814 ft 461 kts 329°
2026-05-03 22:26 27.88875 -81.08945 30968 ft 461 kts 329°
2026-05-03 22:26 27.92903 -81.10625 31259 ft 460 kts 329°
2026-05-03 22:26 27.95886 -81.11868 31459 ft 460 kts 329°
2026-05-03 22:26 27.98920 -81.13133 31620 ft 461 kts 329°
2026-05-03 22:27 28.01940 -81.14394 31825 ft 460 kts 328°
2026-05-03 22:27 28.04860 -81.15726 32079 ft 454 kts 324°
2026-05-03 22:27 28.06793 -81.16691 32231 ft 452 kts 324°
2026-05-03 22:27 28.09670 -81.18162 32446 ft 451 kts 323°
2026-05-03 22:28 28.13494 -81.20134 32680 ft 450 kts 323°
2026-05-03 22:28 28.16313 -81.21581 32892 ft 449 kts 323°
2026-05-03 22:28 28.18208 -81.22557 32997 ft 449 kts 323°
2026-05-03 22:28 28.22032 -81.24532 33231 ft 449 kts 322°
2026-05-03 22:29 28.23924 -81.25510 33374 ft 449 kts 322°
2026-05-03 22:29 28.27704 -81.27466 33671 ft 447 kts 322°
2026-05-03 22:29 28.30531 -81.28929 33858 ft 447 kts 322°
2026-05-03 22:29 28.33355 -81.30388 34086 ft 445 kts 322°
2026-05-03 22:30 28.36199 -81.31850 34242 ft 446 kts 322°
2026-05-03 22:30 28.41837 -81.34721 34639 ft 444 kts 322°
2026-05-03 22:30 28.44645 -81.36149 34869 ft 442 kts 322°
2026-05-03 22:31 28.46515 -81.37103 34960 ft 442 kts 322°
2026-05-03 22:31 28.50271 -81.39025 35087 ft 443 kts 322°
2026-05-03 22:31 28.53086 -81.40472 35196 ft 444 kts 322°
2026-05-03 22:31 28.55911 -81.41921 35349 ft 444 kts 322°
2026-05-03 22:32 28.58728 -81.43365 35545 ft 442 kts 322°
2026-05-03 22:32 28.61524 -81.44797 35683 ft 442 kts 322°
2026-05-03 22:32 28.63387 -81.45755 35725 ft 442 kts 321°
2026-05-03 22:32 28.67142 -81.47686 35884 ft 442 kts 321°
2026-05-03 22:33 28.69910 -81.49108 36095 ft 439 kts 321°
2026-05-03 22:33 28.72690 -81.50541 36214 ft 439 kts 321°
2026-05-03 22:33 28.75494 -81.51988 36245 ft 441 kts 321°
2026-05-03 22:34 28.81105 -81.54889 36273 ft 445 kts 321°
2026-05-03 22:34 28.83915 -81.56336 36411 ft 445 kts 322°
2026-05-03 22:34 28.85817 -81.57263 36506 ft 448 kts 323°
2026-05-03 22:34 28.89757 -81.58900 36663 ft 455 kts 328°
2026-05-03 22:35 28.91778 -81.59602 36687 ft 460 kts 330°
2026-05-03 22:35 28.99210 -81.61395 36839 ft 478 kts 338°
2026-05-03 22:36 29.05919 -81.62144 36904 ft 488 kts 342°
2026-05-03 22:36 29.09315 -81.62432 37047 ft 487 kts 342°
2026-05-03 22:36 29.12704 -81.62718 37124 ft 486 kts 342°
2026-05-03 22:36 29.16054 -81.63002 37266 ft 484 kts 342°
2026-05-03 22:37 29.19441 -81.63299 37342 ft 483 kts 341°
2026-05-03 22:37 29.26138 -81.63906 37115 ft 482 kts 341°
2026-05-03 22:37 29.29453 -81.64217 36879 ft 485 kts 342°
2026-05-03 22:38 29.31711 -81.64428 36707 ft 487 kts 342°
2026-05-03 22:38 29.35122 -81.64745 36466 ft 487 kts 342°
2026-05-03 22:38 29.38483 -81.65050 36228 ft 485 kts 341°
2026-05-03 22:38 29.42940 -81.65469 35885 ft 482 kts 342°
2026-05-03 22:39 29.46279 -81.65793 35656 ft 481 kts 342°
2026-05-03 22:39 29.48487 -81.66004 35499 ft 481 kts 342°
2026-05-03 22:39 29.52937 -81.66425 35176 ft 481 kts 342°
2026-05-03 22:39 29.56278 -81.66735 35072 ft 482 kts 342°
2026-05-03 22:40 29.59644 -81.67044 35072 ft 481 kts 342°
2026-05-03 22:40 29.65217 -81.67557 35088 ft 482 kts 342°
2026-05-03 22:41 29.71863 -81.68171 35079 ft 483 kts 342°
2026-05-03 22:41 29.79685 -81.68894 35097 ft 478 kts 342°
2026-05-03 22:42 29.86342 -81.69517 35092 ft 479 kts 342°
2026-05-03 22:42 29.92984 -81.70136 35105 ft 479 kts 343°
2026-05-03 22:43 29.98510 -81.70652 35103 ft 478 kts 343°
2026-05-03 22:43 30.05135 -81.71268 35099 ft 480 kts 343°
2026-05-03 22:44 30.11781 -81.71888 35096 ft 478 kts 343°
2026-05-03 22:44 30.19517 -81.72598 35105 ft 477 kts 343°
2026-05-03 22:45 30.26164 -81.73217 35095 ft 479 kts 343°
2026-05-03 22:45 30.32808 -81.73838 35100 ft 476 kts 343°
2026-05-03 22:46 30.39418 -81.74461 35105 ft 478 kts 343°
2026-05-03 22:46 30.46055 -81.75085 35104 ft 477 kts 343°
2026-05-03 22:47 30.51577 -81.75606 35099 ft 479 kts 343°
2026-05-03 22:47 30.55866 -81.76533 35095 ft 457 kts 330°
2026-05-03 22:47 30.57824 -81.77377 35102 ft 446 kts 324°
2026-05-03 22:48 30.63376 -81.80443 35098 ft 444 kts 322°
2026-05-03 22:48 30.69874 -81.84108 35096 ft 444 kts 322°
2026-05-03 22:49 30.75456 -81.87221 35090 ft 446 kts 322°
2026-05-03 22:49 30.80142 -81.89825 35084 ft 448 kts 323°
2026-05-03 22:50 30.86682 -81.93449 35090 ft 448 kts 323°
2026-05-03 22:50 30.92278 -81.96552 35081 ft 447 kts 323°
2026-05-03 22:51 30.96958 -81.99154 35087 ft 446 kts 323°
2026-05-03 22:51 31.00707 -82.01235 34959 ft 446 kts 323°
2026-05-03 22:51 31.03507 -82.02792 35024 ft 448 kts 323°
2026-05-03 22:52 31.09124 -82.05920 35063 ft 447 kts 323°
2026-05-03 22:52 31.14738 -82.09036 35077 ft 449 kts 323°
2026-05-03 22:53 31.19426 -82.11637 35079 ft 448 kts 323°
2026-05-03 22:53 31.25057 -82.14778 35083 ft 447 kts 323°
2026-05-03 22:54 31.31601 -82.18438 35081 ft 448 kts 323°
2026-05-03 22:54 31.36278 -82.21060 35087 ft 446 kts 323°
2026-05-03 22:55 31.41878 -82.24202 35085 ft 445 kts 323°
2026-05-03 22:55 31.48414 -82.27879 35086 ft 446 kts 323°
2026-05-03 22:56 31.54006 -82.31026 35088 ft 447 kts 323°
2026-05-03 22:56 31.58653 -82.33646 35092 ft 446 kts 323°
2026-05-03 22:57 31.65188 -82.37335 35086 ft 446 kts 323°
2026-05-03 22:57 31.70789 -82.40501 35090 ft 447 kts 323°
2026-05-03 22:58 31.76371 -82.43663 35090 ft 446 kts 323°
2026-05-03 22:58 31.81956 -82.46829 35090 ft 446 kts 323°
2026-05-03 22:59 31.86617 -82.49478 35089 ft 446 kts 323°
2026-05-03 22:59 31.92149 -82.52693 35100 ft 441 kts 321°
2026-05-03 23:00 31.97317 -82.56504 35096 ft 432 kts 314°
2026-05-03 23:00 32.02707 -82.61593 35094 ft 425 kts 309°
2026-05-03 23:01 32.07156 -82.66152 35095 ft 424 kts 308°
2026-05-03 23:01 32.11610 -82.70731 35093 ft 423 kts 309°
2026-05-03 23:02 32.16078 -82.75285 35093 ft 423 kts 309°
2026-05-03 23:02 32.20496 -82.79797 35090 ft 423 kts 309°
2026-05-03 23:02 32.22717 -82.82068 34852 ft 415 kts 309°
2026-05-03 23:03 32.24157 -82.83541 34646 ft 414 kts 309°
2026-05-03 23:03 32.27054 -82.86521 34030 ft 415 kts 309°
2026-05-03 23:03 32.28507 -82.88019 33557 ft 417 kts 309°
2026-05-03 23:03 32.31441 -82.91044 32556 ft 420 kts 310°
2026-05-03 23:04 32.33640 -82.93310 31812 ft 423 kts 310°
2026-05-03 23:04 32.35833 -82.95569 31117 ft 424 kts 311°
2026-05-03 23:04 32.37333 -82.97112 30630 ft 425 kts 311°
2026-05-03 23:04 32.40284 -83.00148 29665 ft 427 kts 311°
2026-05-03 23:05 32.41775 -83.01681 29155 ft 428 kts 312°
2026-05-03 23:05 32.44772 -83.04765 28125 ft 430 kts 312°
2026-05-03 23:05 32.47028 -83.07086 27391 ft 431 kts 313°
2026-05-03 23:05 32.49286 -83.09414 26608 ft 432 kts 313°
2026-05-03 23:06 32.50793 -83.10970 26069 ft 434 kts 314°
2026-05-03 23:06 32.52306 -83.12532 25510 ft 435 kts 314°
2026-05-03 23:06 32.56092 -83.16443 24156 ft 437 kts 314°
2026-05-03 23:06 32.57626 -83.18030 23573 ft 439 kts 315°
2026-05-03 23:07 32.59935 -83.20418 22679 ft 441 kts 315°
2026-05-03 23:07 32.62985 -83.23576 21664 ft 440 kts 315°
2026-05-03 23:07 32.64511 -83.25156 21301 ft 436 kts 315°
2026-05-03 23:07 32.66796 -83.27526 20729 ft 431 kts 315°
2026-05-03 23:08 32.69781 -83.30627 19961 ft 426 kts 316°
2026-05-03 23:08 32.71259 -83.32162 19576 ft 423 kts 316°
2026-05-03 23:08 32.74172 -83.35192 18813 ft 419 kts 316°
2026-05-03 23:08 32.76336 -83.37447 18233 ft 416 kts 316°
2026-05-03 23:09 32.78527 -83.39732 17643 ft 413 kts 316°
2026-05-03 23:09 32.79971 -83.41239 17260 ft 411 kts 316°
2026-05-03 23:09 32.82107 -83.43469 16670 ft 408 kts 316°
2026-05-03 23:09 32.84914 -83.46403 16121 ft 398 kts 316°
2026-05-03 23:10 32.86271 -83.47821 15960 ft 390 kts 316°
2026-05-03 23:10 32.88263 -83.49903 15857 ft 376 kts 316°
2026-05-03 23:10 32.90831 -83.52593 15606 ft 360 kts 316°
2026-05-03 23:10 32.92068 -83.53888 15455 ft 353 kts 316°
2026-05-03 23:11 32.94471 -83.56404 15344 ft 336 kts 316°
2026-05-03 23:11 32.96198 -83.58214 14993 ft 333 kts 317°
2026-05-03 23:11 32.97950 -83.60048 14576 ft 331 kts 317°
2026-05-03 23:11 32.99658 -83.61839 14185 ft 329 kts 317°
2026-05-03 23:12 33.01364 -83.63627 13790 ft 327 kts 317°
2026-05-03 23:12 33.03064 -83.65412 13395 ft 325 kts 317°
2026-05-03 23:12 33.04760 -83.67204 13010 ft 322 kts 317°
2026-05-03 23:12 33.05870 -83.68378 12749 ft 321 kts 317°
2026-05-03 23:13 33.08089 -83.70720 12226 ft 319 kts 317°
2026-05-03 23:13 33.09208 -83.71898 11965 ft 318 kts 317°
2026-05-03 23:13 33.11398 -83.74195 11693 ft 307 kts 317°
2026-05-03 23:13 33.12952 -83.75816 11642 ft 294 kts 317°
2026-05-03 23:14 33.13978 -83.76890 11595 ft 286 kts 317°
2026-05-03 23:14 33.15938 -83.78952 11174 ft 284 kts 317°
2026-05-03 23:14 33.16919 -83.79988 10942 ft 283 kts 317°
2026-05-03 23:14 33.18871 -83.82059 10496 ft 281 kts 316°
2026-05-03 23:15 33.19809 -83.83138 10270 ft 280 kts 315°
2026-05-03 23:15 33.21643 -83.85314 9822 ft 278 kts 315°
2026-05-03 23:15 33.22554 -83.86401 9606 ft 277 kts 315°
2026-05-03 23:15 33.24355 -83.88551 9172 ft 275 kts 315°
2026-05-03 23:16 33.25265 -83.89637 8945 ft 274 kts 315°
2026-05-03 23:16 33.27053 -83.91769 8510 ft 273 kts 315°
2026-05-03 23:16 33.27946 -83.92834 8295 ft 272 kts 315°
2026-05-03 23:16 33.29346 -83.94319 8093 ft 266 kts 323°
2026-05-03 23:17 33.30891 -83.95557 7724 ft 267 kts 327°
2026-05-03 23:17 33.32458 -83.96745 7355 ft 268 kts 327°
2026-05-03 23:17 33.34033 -83.97954 7035 ft 266 kts 326°
2026-05-03 23:17 33.36092 -83.99565 6607 ft 265 kts 326°
2026-05-03 23:18 33.37611 -84.00770 6284 ft 264 kts 326°
2026-05-03 23:18 33.39149 -84.01997 5961 ft 263 kts 326°
2026-05-03 23:18 33.40674 -84.03220 5634 ft 263 kts 326°
2026-05-03 23:18 33.42169 -84.04421 5329 ft 261 kts 326°
2026-05-03 23:19 33.43181 -84.05235 5121 ft 260 kts 326°
2026-05-03 23:19 33.45179 -84.06845 4973 ft 259 kts 325°
2026-05-03 23:19 33.46659 -84.08040 4900 ft 257 kts 326°
2026-05-03 23:19 33.48140 -84.09236 4557 ft 258 kts 326°
2026-05-03 23:20 33.49636 -84.10445 4220 ft 258 kts 326°
2026-05-03 23:20 33.51120 -84.11645 3896 ft 257 kts 326°
2026-05-03 23:20 33.52591 -84.12833 3584 ft 257 kts 326°
2026-05-03 23:20 33.54078 -84.14036 3298 ft 255 kts 326°
2026-05-03 23:21 33.55533 -84.15211 3038 ft 252 kts 325°
2026-05-03 23:21 33.56514 -84.16005 3003 ft 253 kts 325°
2026-05-03 23:21 33.58464 -84.17585 2996 ft 254 kts 325°
2026-05-03 23:21 33.59439 -84.18375 2990 ft 250 kts 325°
2026-05-03 23:22 33.62595 -84.21044 2970 ft 231 kts 311°
2026-05-03 23:22 33.63159 -84.22121 2968 ft 228 kts 289°
2026-05-03 23:22 33.63341 -84.23955 2983 ft 216 kts 270°
2026-05-03 23:23 33.63238 -84.26301 2975 ft 206 kts 269°
2026-05-03 23:23 33.63203 -84.27402 3055 ft 190 kts 270°
2026-05-03 23:23 33.63181 -84.29410 2939 ft 172 kts 272°
2026-05-03 23:23 33.63181 -84.30328 2817 ft 161 kts 272°
2026-05-03 23:24 33.63184 -84.32024 2522 ft 148 kts 272°
2026-05-03 23:24 33.63185 -84.33253 2350 ft 147 kts 272°
2026-05-03 23:24 33.63185 -84.34070 2226 ft 146 kts 271°
2026-05-03 23:24 33.63189 -84.35682 1995 ft 146 kts 272°
2026-05-03 23:25 33.63195 -84.36491 1862 ft 148 kts 272°
2026-05-03 23:25 33.63193 -84.38151 1607 ft 150 kts 270°
2026-05-03 23:25 33.63179 -84.39400 1377 ft 153 kts 270°
2026-05-03 23:25 33.63179 -84.40648 1202 ft 147 kts 271°
2026-05-03 23:26 33.63186 -84.41454 1058 ft 142 kts 271°
2026-05-03 23:26 33.63184 -84.42569 996 ft 117 kts 271°
2026-05-03 23:26 33.63183 -84.43505 1007 ft 52 kts 271°
2026-05-03 23:26 33.63184 -84.43794 1010 ft 44 kts 270°
2026-05-03 23:27 33.63207 -84.44097 1015 ft 31 kts 288°
2026-05-03 23:27 33.63298 -84.44261 1018 ft 6 kts 349°
2026-05-03 23:27 33.63307 -84.44262 1018 ft 0 kts 358°
2026-05-03 23:28 33.63308 -84.44262 1018 ft 1 kts 359°
2026-05-03 23:28 33.63361 -84.44228 1017 ft 11 kts 40°
2026-05-03 23:28 33.63417 -84.44196 1018 ft 14 kts
2026-05-03 23:28 33.63512 -84.44193 1019 ft 12 kts 359°
2026-05-03 23:29 33.63620 -84.44194 1019 ft 11 kts
2026-05-03 23:29 33.63666 -84.44126 1019 ft 12 kts 94°
2026-05-03 23:29 33.63663 -84.44019 1017 ft 13 kts 91°
2026-05-03 23:29 33.63663 -84.43897 1014 ft 15 kts 90°
2026-05-03 23:30 33.63664 -84.43771 1013 ft 11 kts 89°
2026-05-03 23:30 33.63665 -84.43705 1013 ft 11 kts 90°
2026-05-03 23:30 33.63664 -84.43605 1012 ft 13 kts 90°
2026-05-03 23:30 33.63663 -84.43457 1010 ft 10 kts 90°
2026-05-03 23:31 33.63663 -84.43395 1010 ft 11 kts 90°
2026-05-03 23:31 33.63663 -84.43301 1009 ft 11 kts 90°
2026-05-03 23:31 33.63664 -84.43159 1007 ft 12 kts 90°
2026-05-03 23:31 33.63664 -84.43058 1007 ft 12 kts 90°
2026-05-03 23:32 33.63665 -84.42991 1007 ft 12 kts 90°
2026-05-03 23:32 33.63663 -84.42882 1004 ft 11 kts 91°
2026-05-03 23:32 33.63665 -84.42776 1002 ft 13 kts 75°
2026-05-03 23:32 33.63745 -84.42733 1002 ft 13 kts 358°
2026-05-03 23:33 33.63815 -84.42734 1003 ft 9 kts 360°
2026-05-03 23:33 33.63882 -84.42718 1004 ft 6 kts 56°
2026-05-03 23:33 33.63885 -84.42680 1004 ft 7 kts 91°
2026-05-03 23:33 33.63885 -84.42625 1002 ft 2 kts 90°